[[{"header":{"parameterUnit":"m.s-1","parameterCategory":1,"la1":30.2991,"la2":30.254,"lo1":-89.0895,"lo2":-89.0444,"dy":0.0017,"dx":0.0017,"nx":28,"ny":28,"refTime":"2025-06-18T21:00:00:Z","depth":0,"parameterNumber":2,"parameterNumberName":"U-component_of_WINDS"},"data":[0,0,0,0,0,0,0,0,0,0,0,0,0,0,0,0,0,0,0,0,0,0,0,0,0,0,0,0,0,0,0,0,0,0,0,0,0,0,0,0,0,0,0,0,0,0,0,0,0,0,0,0,0,0,0,0,0,0,0.1482,0.1481,0,0.1442,0.1441,0.1441,0.1394,0.1393,0.1392,0.1392,0.1351,0.1351,0.135,0,0,0,0,0,0,0,0,0,0,0,0,0,0.1516,0.1515,0.1482,0.1481,0.1481,0.1442,0.1441,0.1441,0.1394,0.1393,0.1392,0.1391,0.1351,0.1351,0.135,0,0,0,0,0,0,0,0,0,0,0,0,0,0.1491,0.1515,0.1482,0.1453,0.145,0.1442,0.1441,0.1441,0.1394,0.1393,0.1392,0.1391,0.1352,0.1351,0.135,0.1368,0,0,0.1348,0.1348,0,0,0,0,0,0,0,0,0.1492,0.149,0.1457,0.1455,0.1451,0.1422,0.1438,0.1416,0.1394,0.1415,0.1392,0.139,0.1376,0.1373,0.1368,0.1366,0.1365,0.1348,0.1348,0.1348,0.1348,0,0,0,0,0,0,0,0.1494,0.1491,0.1466,0.1457,0.1453,0.1441,0.1436,0.1434,0.1402,0.1413,0.141,0.1406,0.1374,0.1369,0.1367,0.1364,0.1348,0.1348,0.1347,0.1347,0.1372,0.1373,0,0,0,0,0,0,0.15,0.1493,0.1467,0.1465,0.1469,0.1441,0.1436,0.1432,0.1402,0.1396,0.1407,0.1404,0.137,0.1367,0.1365,0.1382,0.1348,0.1347,0.1347,0.1371,0.1372,0.1373,0,0,0,0,0,0,0.1501,0.1498,0.1469,0.1478,0.1473,0.1442,0.1438,0.1432,0.1427,0.1397,0.1391,0.1407,0.1369,0.1366,0.1367,0.138,0.1347,0.1346,0.137,0.1371,0.1373,0.1417,0,0,0,0,0,0,0.1502,0.1499,0.1506,0.1478,0.1473,0.1472,0.1439,0.1432,0.1426,0.1422,0.1396,0.1391,0.1368,0.1368,0.1366,0.1378,0.1346,0.1368,0.1371,0.1372,0.1414,0.142,0.1425,0,0,0,0,0,0.1504,0.1521,0.1507,0.1504,0.1481,0.1473,0.147,0.1443,0.1427,0.1433,0.1414,0.1391,0.1379,0.1369,0.1366,0.1378,0.1368,0.137,0.1372,0.1412,0.1419,0.1425,0,0,0,0,0,0,0.1552,0.1517,0.1501,0.1509,0.1494,0.1465,0.1472,0.1452,0.1441,0.1438,0.1406,0.14,0.1405,0.1392,0.1381,0.1393,0.137,0.1372,0.1401,0.1407,0.1412,0.1415,0.1345,0,0,0,0,0,0.1563,0.156,0.1529,0.154,0.1533,0.1504,0.15,0.148,0.1464,0.1457,0.1438,0.1422,0.1414,0.141,0.1402,0.1412,0.1405,0.1419,0.1424,0.1429,0.1431,0.1433,0.1438,0.1381,0.1381,0.1381,0,0,0.1587,0.1567,0.1568,0.1549,0.1535,0.1532,0.1499,0.1498,0.1494,0.1457,0.1457,0.1442,0.1422,0.1427,0.1429,0.1417,0.1445,0.1432,0.1436,0.1435,0.1436,0.1441,0.1446,0.1382,0.1382,0.1382,0,0,0.1628,0.1614,0.162,0.1606,0.1585,0.1566,0.1567,0.154,0.1529,0.1528,0.1499,0.1494,0.1482,0.1469,0.146,0.1494,0.1473,0.1492,0.1519,0.1522,0.1527,0.153,0.1541,0.1545,0.1494,0.1495,0.1495,0,0.166,0.1654,0.1626,0.1625,0.1617,0.1582,0.1587,0.1576,0.1553,0.1548,0.1535,0.1517,0.1502,0.1502,0.151,0.1505,0.1505,0.1495,0.1528,0.1532,0.1535,0.1544,0.1549,0.1497,0.1497,0.1496,0.1496,0,0.1694,0.169,0.1697,0.1676,0.1668,0.1671,0.1642,0.1638,0.1619,0.16,0.1598,0.1578,0.1563,0.1562,0.1544,0.156,0.1553,0.1534,0.1511,0.1543,0.1552,0.1555,0.15,0.15,0.1499,0.1498,0,0,0.1765,0.1726,0.1729,0.1718,0.1691,0.1687,0.1687,0.1673,0.1669,0.1655,0.1653,0.1642,0.1624,0.1615,0.1595,0.1597,0.1623,0.1578,0.1577,0.1586,0.1636,0.1649,0.1654,0.1608,0.1609,0.1609,0.1637,0,0.18,0.1798,0.1772,0.1777,0.1772,0.1738,0.1737,0.1721,0.1703,0.1695,0.1676,0.1668,0.1646,0.1639,0.164,0.162,0.1632,0.1617,0.1605,0.1605,0.161,0.1659,0.1673,0.1701,0.1641,0.1641,0.1642,0,0.1842,0.1828,0.1833,0.1804,0.1801,0.1802,0.1785,0.1779,0.1758,0.1745,0.1733,0.171,0.1706,0.1685,0.1679,0.1669,0.1662,0.1651,0.1651,0.1649,0.1625,0.1656,0.1709,0.1713,0.1647,0.1646,0.1646,0,0.1891,0.1874,0.1874,0.1866,0.1833,0.1833,0.182,0.1798,0.179,0.1776,0.177,0.1756,0.1747,0.1736,0.1709,0.1696,0.1705,0.1682,0.1693,0.1694,0.1696,0.1696,0.1748,0.1694,0.1694,0.1694,0.1694,0,0.1933,0.1936,0.1895,0.1895,0.1898,0.1867,0.187,0.1853,0.1833,0.1829,0.1799,0.1795,0.176,0.1751,0.173,0.1727,0.1724,0.1712,0.1706,0.1714,0.1716,0.1709,0.1706,0.1695,0.1695,0.1695,0.1695,0,0.1988,0.1961,0.1958,0.1927,0.1919,0.1922,0.1894,0.1892,0.1872,0.1866,0.1863,0.1831,0.182,0.1791,0.1773,0.1758,0.1761,0.1751,0.1768,0.1764,0.1776,0.1775,0.1824,0.1828,0.1773,0.1774,0.1774,0,0.2016,0.2018,0.1986,0.198,0.1968,0.1959,0.1951,0.192,0.1912,0.1887,0.1888,0.1874,0.1861,0.1844,0.1819,0.1803,0.1792,0.181,0.179,0.1797,0.179,0.179,0.1789,0.1815,0.1816,0.1816,0.1817,0,0.2068,0.2053,0.2043,0.2026,0.2017,0.2003,0.1987,0.1984,0.1948,0.1941,0.1928,0.1918,0.1898,0.1884,0.1865,0.185,0.1827,0.1823,0.1825,0.1832,0.1841,0.1835,0.1779,0.1822,0.1822,0.1821,0.1821,0.1821,0.2109,0.2108,0.2085,0.2073,0.2057,0.2043,0.2039,0.2017,0.2007,0.1988,0.197,0.1958,0.1936,0.1907,0.1894,0.1884,0.1872,0.1875,0.1876,0.1876,0.1879,0.1844,0.1881,0.188,0.188,0.188,0.188,0,0.2157,0.214,0.213,0.2108,0.2098,0.2077,0.2058,0.2051,0.2042,0.2023,0.201,0.1995,0.198,0.1953,0.1936,0.1933,0.1922,0.193,0.1929,0.1926,0.1891,0.1891,0.1939,0.1939,0.1939,0.1939,0.1939,0.1939,0.2181,0.2178,0.2161,0.215,0.2132,0.2121,0.2112,0.2097,0.2082,0.2066,0.2054,0.2036,0.2013,0.1994,0.1979,0.1972,0.1966,0.1977,0.1966,0.1934,0.1928,0.1923,0.1922,0.1976,0.1976,0.2,0.2001,0.2001]},{"header":{"parameterUnit":"m.s-1","parameterCategory":1,"la1":30.2991,"la2":30.254,"lo1":-89.0895,"lo2":-89.0444,"dy":0.0017,"dx":0.0017,"nx":28,"ny":28,"refTime":"2025-06-18T21:00:00:Z","depth":0,"parameterNumber":3,"parameterNumberName":"V-component_of_WINDS"},"data":[0,0,0,0,0,0,0,0,0,0,0,0,0,0,0,0,0,0,0,0,0,0,0,0,0,0,0,0,0,0,0,0,0,0,0,0,0,0,0,0,0,0,0,0,0,0,0,0,0,0,0,0,0,0,0,0,0,0,5.978,5.978,0,5.9836,5.9837,5.9837,5.9771,5.9768,5.9766,5.9763,5.9815,5.9819,5.9823,0,0,0,0,0,0,0,0,0,0,0,0,0,5.9607,5.961,5.9779,5.978,5.9781,5.9836,5.9837,5.9838,5.9771,5.9768,5.9765,5.9762,5.9814,5.9819,5.9823,0,0,0,0,0,0,0,0,0,0,0,0,0,5.9674,5.9611,5.9779,5.9755,5.9753,5.9836,5.9837,5.9838,5.9772,5.9768,5.9764,5.9761,5.9813,5.9818,5.9824,5.9932,0,0,5.984,5.9843,0,0,0,0,0,0,0,0,5.967,5.9681,5.9757,5.9756,5.9755,5.9793,5.9795,5.9869,5.9773,5.9764,5.9763,5.9759,5.981,5.9816,5.9834,5.9934,5.9937,5.9841,5.9844,5.9847,5.9848,0,0,0,0,0,0,0,5.9666,5.9678,5.9802,5.9759,5.9757,5.9738,5.9744,5.9809,5.9807,5.9765,5.976,5.9768,5.9809,5.9829,5.9835,5.9937,5.9841,5.9846,5.9849,5.9851,6.0126,6.013,0,0,0,0,0,0,5.9665,5.9674,5.98,5.9803,5.9703,5.9744,5.9751,5.9784,5.9806,5.9806,5.9771,5.9765,5.9822,5.9829,5.9837,5.9963,5.9847,5.9852,5.9855,6.0123,6.0127,6.0132,0,0,0,0,0,0,5.9662,5.9677,5.9798,5.9738,5.9752,5.9751,5.979,5.9787,5.9808,5.9811,5.981,5.9793,5.9819,5.9829,5.9909,5.9964,5.9854,5.9859,6.0118,6.0124,6.0129,6.0218,0,0,0,0,0,0,5.9657,5.9676,5.9719,5.9739,5.9755,5.9871,5.9793,5.9791,5.9818,5.981,5.9831,5.9831,5.9817,5.9901,5.9914,5.997,5.9864,6.0113,6.0121,6.0128,6.021,6.0227,6.024,0,0,0,0,0,5.9651,5.9741,5.9721,5.9737,5.9809,5.9874,5.9883,5.9867,5.9823,5.9864,5.9867,5.983,5.9957,5.991,5.9924,5.9982,6.0109,6.0118,6.0127,6.0204,6.0223,6.024,0,0,0,0,0,0,5.9725,5.9743,5.9722,5.9821,5.9847,5.9863,5.9915,5.9888,5.9925,5.9916,5.9892,5.9898,5.9982,5.999,5.9938,6.0087,6.0025,6.0038,6.0078,6.0097,6.0112,6.0107,5.9868,0,0,0,0,0,5.9753,5.9807,5.9819,5.9905,5.992,5.9916,5.9943,5.9929,5.9953,5.9963,5.9971,5.9995,6.0039,6.0069,6.011,6.0212,6.0214,6.0259,6.0274,6.0286,6.0296,6.0348,6.0367,6.0161,6.0161,6.0161,0,0,5.9811,5.9828,5.9863,5.9921,5.9939,5.9992,5.9925,5.9985,6.0023,5.9971,6.0047,6.0054,6.0078,6.0169,6.0209,6.0178,6.0354,6.0298,6.0308,6.0311,6.0359,6.0379,6.0396,6.0167,6.0166,6.0165,0,0,5.9944,5.9963,6.0037,6.0057,6.0085,6.0082,6.01,6.012,6.0123,6.0199,6.0161,6.0205,6.0284,6.0302,6.0322,6.0462,6.0428,6.0476,6.0553,6.0604,6.062,6.0634,6.0682,6.07,6.0486,6.0486,6.0487,0,6.0012,6.0093,6.0077,6.014,6.0165,6.0123,6.0195,6.0214,6.0255,6.0272,6.0238,6.0334,6.0348,6.0441,6.0475,6.0493,6.051,6.0472,6.062,6.0634,6.0647,6.0692,6.071,6.0492,6.0491,6.0491,6.049,0,6.0174,6.0231,6.0286,6.0328,6.036,6.0427,6.0418,6.0452,6.0435,6.0435,6.0511,6.0526,6.0569,6.0591,6.0574,6.0681,6.0661,6.0624,6.0561,6.0672,6.0714,6.0731,6.05,6.0498,6.0496,6.0495,0,0,6.0353,6.0386,6.0406,6.0424,6.0453,6.0495,6.0559,6.0603,6.0632,6.0661,6.0712,6.0779,6.0745,6.0767,6.0752,6.0797,6.0904,6.0754,6.0754,6.0779,6.102,6.1046,6.1067,6.0883,6.0887,6.0889,6.1017,0,6.0484,6.0598,6.0585,6.0693,6.0743,6.0704,6.0759,6.0782,6.0783,6.0825,6.0825,6.0872,6.0825,6.0838,6.0881,6.0882,6.0952,6.0873,6.0928,6.093,6.0921,6.1089,6.1117,6.1237,6.1034,6.1037,6.1039,0,6.0653,6.069,6.0803,6.0823,6.0843,6.0894,6.0932,6.0973,6.0997,6.0995,6.102,6.0997,6.1058,6.0997,6.108,6.1027,6.1049,6.1053,6.1057,6.1059,6.0989,6.1093,6.1275,6.1292,6.1064,6.1062,6.1061,0,6.0769,6.0847,6.0924,6.0941,6.0967,6.1003,6.1015,6.1035,6.1062,6.1095,6.1112,6.1151,6.1172,6.1202,6.1189,6.1145,6.1274,6.1211,6.1271,6.1272,6.1298,6.1296,6.1484,6.1317,6.1317,6.1316,6.1316,0,6.0916,6.0986,6.0977,6.1024,6.11,6.1084,6.1159,6.1166,6.1185,6.1231,6.1199,6.1242,6.1224,6.1265,6.1255,6.1325,6.1335,6.1333,6.1329,6.1334,6.1334,6.1346,6.1337,6.1321,6.132,6.1319,6.1318,0,6.1058,6.1055,6.1136,6.1155,6.1161,6.1216,6.123,6.1273,6.1273,6.1331,6.1344,6.1342,6.1389,6.138,6.1431,6.1424,6.1511,6.1498,6.1503,6.1499,6.1559,6.1552,6.1758,6.1783,6.1603,6.1605,6.1606,0,6.115,6.1203,6.1228,6.1257,6.1272,6.132,6.1348,6.1333,6.1363,6.1394,6.1432,6.1477,6.1512,6.1589,6.1591,6.1629,6.1615,6.1685,6.1621,6.1624,6.1613,6.1609,6.1613,6.1697,6.1699,6.1701,6.1702,0,6.1314,6.131,6.1352,6.1393,6.1428,6.1459,6.1487,6.1512,6.15,6.1535,6.1583,6.1611,6.1664,6.1708,6.1744,6.1753,6.1725,6.1723,6.1738,6.1743,6.1743,6.1741,6.1535,6.1717,6.1716,6.1715,6.1714,6.1713,6.1432,6.1476,6.1501,6.1548,6.1568,6.1595,6.1636,6.1641,6.1682,6.1725,6.1714,6.1769,6.1789,6.1835,6.185,6.189,6.1864,6.1887,6.1892,6.1898,6.1904,6.1739,6.1897,6.1897,6.1896,6.1896,6.1896,0,6.1591,6.1605,6.1649,6.169,6.1727,6.17,6.173,6.1761,6.181,6.1833,6.1869,6.1924,6.1966,6.1972,6.2011,6.2043,6.203,6.2053,6.2049,6.2051,6.1926,6.1908,6.2062,6.2062,6.2062,6.2062,6.2062,6.2062,6.1679,6.1752,6.1751,6.1833,6.1846,6.1901,6.192,6.1943,6.1961,6.2025,6.2061,6.2065,6.208,6.212,6.2157,6.2158,6.2172,6.22,6.2195,6.2077,6.2061,6.2045,6.2027,6.2204,6.2204,6.2316,6.2317,6.2318]}]]